Location: Taukkyan
(23.1052°N, 94.0030°E)
Time: 11:25:42
(UTC+00:00)

BREEZE M DEB (TANK) - Pass Details

Date: 06 July 2020
Orbit: 325 x 16146 km, 49.4° (Epoch: 14 August)

Event Time Altitude Azimuth Distance (km) Brightness Sun altitude
Exits shadow 13:39:44 23° 102° (ESE) 1,112 3.3 -14.1°
Drops below altitude 10° 13:43:05 10° 61° (ENE) 2,473 5.4 -14.8°
Sets 13:47:48 0° 50° (NE) 4,706 6.9 -15.7°
